Other Public Products
Issued by NWS Grand Forks, ND

Home | Current Version | Previous Version | Text Only | Print | Product List | Glossary On
Versions: 1 2 3 4 5 6 7 8 9 10 11 12 13 14 15 16 17 18 19 20 21 22 23 24 25 26 27 28 29 30 31 32 33 34 35 36 37 38 39 40 41 42 43 44 45 46 47 48 49 50
000
FPUS83 KFGF 062231
OPUFGF
PRAIRIE TO PINES WEATHER ROUNDUP
NATIONAL WEATHER SERVICE EASTERN NORTH DAKOTA/GRAND FORKS ND
500 PM CDT MON JUL 06 2015

 **SATELLITE DATA USED TO AUGMENT SKY COVER AT AUTOMATED STATIONS**
 *****  WEATHER ACROSS EASTERN NORTH DAKOTA  *****

CITY           SKY/WX    TMP DP  RH WIND       PRES   REMARKS
GRAND FORKS    PTSUNNY   65  49  56 N16G23    30.10S
GRAND FORKS AF MOSUNNY   65  48  53 N14G21    30.11S
GRAND CITY NWS   N/A     64 N/A N/A N15         N/A
BUXTON         NOT AVBL
DEVILS LAKE    PTSUNNY   64  45  48 N13       30.13S
FARGO          CLOUDY    65  49  56 N12       30.10R
WAHPETON ARPT  PTCLDY    64  45  48 N14G23    30.09S
$$

 *****  WEATHER ACROSS CENTRAL AND WESTERN NORTH DAKOTA  *****

CITY           SKY/WX    TMP DP  RH WIND       PRES   REMARKS
JAMESTOWN      MOSUNNY   68  51  54 N14       30.12F
BISMARCK       CLOUDY    70  53  54 N9        30.16R HAZE
MINOT          MOSUNNY   68  46  45 NW10      30.17R
MINOT AFB      SUNNY     69  48  46 N12       30.16S
GARRISON         N/A     67  51  56 N9        30.17S
WILLISTON      MOSUNNY   70  46  42 N10       30.18F
DICKINSON      MOSUNNY   71  51  49 NE16      30.17R
HETTINGER      PTSUNNY   71  50  47 N7        30.19S
$$

 *****  OTHER OBSERVATIONS NORTHEAST NORTH DAKOTA  *****

CITY           SKY/WX    TMP DP  RH WIND       PRES   REMARKS
WALHALLA       FAIR      63  46  55 MISG      30.14S
LANGDON        FAIR      64  46  52 N15       30.15S
CAVALIER       CLOUDY    63  46  55 N13G20    30.13S
GRAFTON        FAIR      64  48  55 N16       30.12F
CANDO          FAIR      64  46  52 N14       30.16S
FORT TOTTEN    NOT AVBL
ROLLA          FAIR      63  45  51 N10       30.17S
RUGBY          NOT AVBL
 ***** THE ABOVE OBSERVATIONS ARE NON NWS ARE NOT QUALITY
        CONTROLLED AND MAY MIS-REPORT RAIN FOR SNOW...
$$

 *****  OTHER OBSERVATIONS SOUTHEAST NORTH DAKOTA *****

CITY           SKY/WX    TMP DP  RH WIND       PRES   REMARKS
COOPERSTOWN    NOT AVBL
VALLEY CITY    FAIR      66  50  55 N18       30.13S
OAKES            N/A     68  55  64 N15       30.11S
GWINNER        MOCLDY    68  52  56 N10G22    30.11S
SHEYENNE NWR     N/A     68  50  52 N12       29.95S
BUFFALO        NOT AVBL
WYNDMERE         N/A     70  52  52 N13         N/A
 ***** THE ABOVE OBSERVATIONS ARE NON NWS ARE NOT QUALITY
       CONTROLLED AND MAY MIS-REPORT RAIN FOR SNOW...
$$

  *****  WEATHER ACROSS NORTHERN MINNESOTA  *****

CITY           SKY/WX    TMP DP  RH WIND       PRES   REMARKS
FLAG ISLAND    CLOUDY    61  43  51 N18       30.06R
WARROAD        CLOUDY    61  46  59 NW9       30.08R
ROSEAU         CLOUDY    61  48  63 NW10      30.09R
HALLOCK        PTSUNNY   63  46  55 N12       30.11S
THF RVR FALLS  CLOUDY    61  43  51 NW15      30.10S
HALSTAD        NOT AVBL
FOSSTON        CLOUDY    63  46  55 NW16      30.10R
BAUDETTE       CLOUDY    61  44  53 N9        30.04R
WASKISH        CLOUDY    59  46  63 N9        30.06R
CROOKSTON      PTSUNNY   63  48  59 N12G20    30.11S
$$
  *****  WEATHER ACROSS CENTRAL AND WEST MINNESOTA  *****

CITY           SKY/WX    TMP DP  RH WIND       PRES   REMARKS
BEMIDJI        CLOUDY    59  45  60 NW13      30.07R
PARK RAPIDS    CLOUDY    61  46  57 N12       30.07R
WADENA         PTSUNNY   61  46  59 NW15G25   30.07R
DETROIT LAKES  MOSUNNY   63  45  51 N9G25     30.10S
MOORHEAD       PTSUNNY   64  48  55 N16       30.11R
FERGUS FALLS   MOSUNNY   64  46  52 N17G28    30.08S
ELBOW LAKE     FAIR      64  47  53 N23G29    30.07R
MORRIS MN      SUNNY     70  50  49 N22G31    30.06R
STAPLES        CLOUDY    63  45  51 N17       30.05R
WHEATON        MOSUNNY   64  48  55 N14G21    30.10R
$$
  *****  WEATHER ELSEWHERE ACROSS MINNESOTA  *****

CITY           SKY/WX    TMP DP  RH WIND       PRES   REMARKS
DULUTH         MOSUNNY   67  53  61 NW13G18   29.93S
INTRNTL FALLS  CLOUDY    61  44  53 N13       30.02S
ELY            CLOUDY    61  46  59 NW9G18    29.96R
CLOQUET        MOSUNNY   68  48  49 NW14G23   29.95R
BRAINERD       CLOUDY    66  47  50 N18G24    30.01R
HIBBING        PTSUNNY   64  46  52 NW13G24   29.98R
ALEXANDRIA     MOSUNNY   67  48  50 N16G30    30.06R
SAINT CLOUD    MOSUNNY   73  51  46 NW15G23   29.96S HAZE
MINNEAPOLIS    PTSUNNY   72  59  63 N9        29.94S SMOKE
$$

  *****  WEATHER ACROSS SOUTH DAKOTA  *****

CITY           SKY/WX    TMP DP  RH WIND       PRES   REMARKS
SIOUX FALLS    CLOUDY    73  57  57 N16G24    30.03S SMOKE
BROOKINGS      PTSUNNY   70  55  60 N20       30.08R
WATERTOWN      MOSUNNY   70  53  54 N18G26    30.09R
HURON          SUNNY     73  55  53 N16G24    30.09R HAZE
SISSETON         N/A     69  49  48 N20G25    30.08S
ABERDEEN       PTSUNNY   73  53  49 N12       30.10S HAZE
MITCHELL       SUNNY     74  57  55 N16G25    30.08R HAZE
PIERRE         MOSUNNY   74  54  49 N12       30.12S
MOBRIDGE       MOSUNNY   74  52  46 N9        30.12S
RAPID CITY     MOSUNNY   70  54  56 N12       30.21F
$$

  *****  SOME WEATHER IN NEARBY STATES *****

CITY           SKY/WX    TMP DP  RH WIND       PRES   REMARKS
GLASGOW MT     MOSUNNY   72  42  34 S6        30.16F
GREAT FALLS MT MOSUNNY   73  49  42 SW6       30.13F
CHEYENNE WY    CLOUDY    59  52  77 NE7       30.31F HAZE
SCOTTSBLUFF NE PTSUNNY   70  52  52 CALM      30.24F HAZE
OMAHA NE       PTSUNNY   76  67  73 N23G33    29.91R
DES MOINES IA  CLOUDY    75  70  84 W3        29.86F
DAVENPORT IA   PTSUNNY   74  70  87 S8        29.84S
CHICAGO IL     CLOUDY    79  69  71 S8        29.86F
EAU CLAIRE WI  CLOUDY    66  57  72 N14G23    29.90R HAZE
LA CROSSE WI   LGT RAIN  70  67  90 NW18      29.82R
$$

  *****  SOME NATIONAL WEATHER *****

CITY           SKY/WX    TMP DP  RH WIND       PRES   REMARKS
LA GUARDIA NY  PTSUNNY   82  65  56 SE8G16    30.11S
RALEIGH NC     PTSUNNY   89  68  49 SW12      30.06F HX  93
ATLANTA GA     LGT RAIN  81  72  74 W5        30.12F
NEW ORLEANS LA PTSUNNY   90  73  57 S9        30.10F HX  98
OKLAHOMA CITY  PTSUNNY   90  75  61 S18       29.87F HX 100
ALBUQUERQUE NM MOSUNNY   89  50  26 CALM      30.08F
SALT LAKE CITY PTSUNNY   87  51  28 NW12      30.03F THUNDER
LOS ANGELES CA PTSUNNY   68  60  75 W10       30.01F
BOISE ID       SUNNY     91  51  25 W8        30.00F
SEATTLE WA     PTSUNNY   82  54  37 W3        30.00F
$$

*** WEATHER ACROSS MANITOBA...SASKATCHEWAN AND ONTARIO ***
                ***ONTARIO***

CITY           SKY/WX    TMP DP  RH WIND       PRES   REMARKS
GERALDTON      CLOUDY    59  48  67 NW8       29.87S
THUNDER BAY    PTSUNNY   64  57  77 N7        29.89F
SIOUX LOOKOUT  CLOUDY    55  43  62 NW13      30.01R
TORONTO        PTSUNNY   79  63  57 E8        29.99F
BIG TROUT LK   CLOUDY    54  45  71 NW12G17   29.89R
PICKLE LAKE    CLOUDY    54  45  71 NW9G22    29.96R
DRYDEN         CLOUDY    54  43  66 NW9G18    30.03R
KENORA         CLOUDY    57  43  58 N9        30.06R
$$
                *** MANITOBA***

CITY           SKY/WX    TMP DP  RH WIND       PRES   REMARKS
BRANDON        MOSUNNY   66  43  42 CALM      30.15F
DAUPHIN        SUNNY     68  36  30 NW8       30.14S
ISLAND LAKE    PTSUNNY   66  41  39 W13       29.99S
PILOT MOUND      N/A     63  45  51 N12G17      N/A
THE PAS        MOSUNNY   73  41  31 SW12G17   30.06F
THOMPSON       MOSUNNY   73  46  38 W12       29.95F
WINNIPEG       MOSUNNY   64  45  48 N14G20    30.11F
LYNN LAKE      CLOUDY    73  41  31 W15       29.92F HAZE
CHURCHILL      MOSUNNY   61  45  55 E9        29.83F
GILLAM         MOSUNNY   70  48  46 W9        29.89F
$$
                ***SASKATCHEWAN***

CITY           SKY/WX    TMP DP  RH WIND       PRES   REMARKS
ESTEVAN        MOSUNNY   68  41  37 VRB9      30.18F
KINDERSLEY     PTSUNNY   68  48  49 SW9       30.12F
LLOYDMINSTER   CLOUDY    68  45  42 S9        30.11F
PRINCE ALBERT  PTSUNNY   70  50  49 W8        30.10F SMOKE
REGINA         MOSUNNY   70  43  37 W8        30.17F


USA.gov is the U.S. government's official web portal to all federal, state and local government web resources and services.